Location: Mactaquac Provincial Park
(45.9573°N, 66.8897°W)
Time: 21:17:09
(UTC-03:00)

CENTAUR R/B - Visible Passes

Search period start: 25 October 2014 00:00
Search period end: 03 November 2014 23:00
Orbit: 894 x 1296 km, 63.5° (Epoch: 14 October)

Date Brightness Start Highest point End Pass type
(mag) Time Alt. Az. Time Alt. Az. Time Alt. Az.
25 Oct 5.4 03:02:13 10° ESE 03:02:13 10° ESE 03:02:19 10° ESE visible
25 Oct 3.8 04:49:32 38° SSE 04:49:32 38° SSE 04:54:10 10° SSE visible
25 Oct 4.4 06:36:51 15° WSW 06:36:51 15° WSW 06:40:07 10° SW visible
25 Oct 2.6 20:21:39 10° SW 20:27:57 80° NW 20:33:29 17° NE visible
25 Oct 4.3 22:14:14 10° W 22:19:46 27° NNW 22:20:42 27° NNW visible
26 Oct 4.9 04:04:37 17° SE 04:04:37 17° SE 04:06:07 10° SE visible
26 Oct 4.4 05:51:56 18° SSW 05:51:56 18° SSW 05:54:28 10° SSW visible
26 Oct 2.6 19:33:42 10° SSW 19:39:52 67° ESE 19:46:41 10° NE visible
26 Oct 3.9 21:25:11 10° W 21:31:04 36° NNW 21:34:24 24° NNE visible
26 Oct 5.0 23:19:11 10° NW 23:21:36 17° NNW 23:21:36 17° NNW visible
27 Oct 4.9 05:06:57 13° S 05:06:57 13° S 05:07:44 10° S visible
27 Oct 3.0 18:46:14 10° S 18:51:59 41° ESE 18:58:16 10° NE visible
27 Oct 3.4 20:36:23 10° WSW 20:42:33 49° NW 20:48:00 16° NNE visible
27 Oct 4.6 22:29:59 10° WNW 22:35:04 22° NNW 22:35:12 22° NNW visible
28 Oct 2.8 19:47:56 10° SW 19:54:13 73° NW 20:01:13 10° NE visible
28 Oct 4.4 21:40:45 10° WNW 21:46:11 26° NNW 21:48:44 21° N visible
28 Oct 5.2 23:34:37 10° NW 23:35:55 14° NNW 23:35:55 14° NNW visible
29 Oct 2.6 18:59:52 10° SSW 19:06:05 75° SE 19:12:59 10° NE visible
29 Oct 4.0 20:51:38 10° W 20:57:27 33° NNW 21:02:12 16° NNE visible
29 Oct 4.8 22:45:41 10° NW 22:49:24 19° NNW 22:49:24 19° NNW visible
30 Oct 3.5 20:02:46 10° WSW 20:08:53 45° NW 20:15:38 10° NNE visible
30 Oct 4.6 21:56:31 10° WNW 22:01:31 21° NNW 22:02:49 20° N visible
30 Oct 5.4 23:49:37 10° NNW 23:50:01 11° NNW 23:50:01 11° NNW visible
31 Oct 3.0 19:14:14 10° SW 19:20:30 66° NW 19:27:29 10° NE visible
31 Oct 4.4 21:07:16 10° WNW 21:12:37 25° NNW 21:16:13 17° NNE visible
31 Oct 5.0 23:01:02 10° NW 23:03:24 17° NNW 23:03:24 17° NNW visible
01 Nov 4.1 20:18:07 10° W 20:23:50 31° NNW 20:29:36 12° NNE visible
01 Nov 4.7 22:12:10 10° NW 22:16:46 19° N 22:16:46 19° N visible
02 Nov 3.7 18:29:11 10° WSW 18:35:14 42° NW 18:41:54 10° NNE visible
02 Nov 4.6 20:23:02 10° WNW 20:27:59 20° N 20:30:08 18° NNE visible
02 Nov 5.2 22:15:56 10° NNW 22:17:18 14° NNW 22:17:18 14° NNW visible
03 Nov 3.2 17:40:33 10° SW 17:46:48 60° NW 17:53:44 10° NE visible
03 Nov 4.4 19:33:48 10° WNW 19:39:03 24° NNW 19:43:28 14° NNE visible
03 Nov 4.8 21:27:25 10° NW 21:30:39 18° N 21:30:39 18° N visible
